Weather History for Cooperstown, ND

Change the Weather History Date:

Wednesday, December 5, 2012

  Actual Average (KJMS) Record (KJMS)
Temperature  
Mean Temperature 22 °F 17 °F  
Max Temperature 32 °F 26 °F 61 °F (1939)
Min Temperature 12 °F 9 °F -23 °F (1950)
Degree Days  
Heating Degree Days 43 48  
Month to date heating degree days 234  
Since 1 July heating degree days 2318  
Cooling Degree Days 0 0  
Month to date cooling degree days 0  
Year to date cooling degree days 446  
Moisture  
Dew Point 17 °F    
Average Humidity 80    
Maximum Humidity 100    
Minimum Humidity 64    
Precipitation  
Precipitation 0.00 in 0.01 in 1.07 in (1960)
Month to date precipitation 0.07  
Year to date precipitation 18.44  
Sea Level Pressure  
Sea Level Pressure 29.92 in    
Wind  
Wind Speed 14 mph (SSE)    
Max Wind Speed 25 mph    
Max Gust Speed 31 mph    
Visibility 10 miles    
Events      
T = Trace of Precipitation, MM = Missing Value Source: NWS Daily Summary

Daily Weather History Graph

Daily Weather History Graph

Search for Another Location

Airport:

Trip Planner

Search our weather history database for the weather conditions in past years. The results will help you decide how hot, cold, wet, or windy it might be!

Date:

Astronomy

Dec. 05, 2012 Rise Set
Actual Time 8:04 AM CST 4:42 PM CST
Civil Twilight 7:28 AM CST 5:17 PM CST
Nautical Twilight 6:50 AM CST 5:56 PM CST
Astronomical Twilight 6:13 AM CST 6:33 PM CST
Moon 11:54 PM CST (12/5) 12:09 PM CST (12/5)
Length of Visible Light 9h 48m
Length of Day
8h 37m
Waning Gibbous, 59% of the Moon is Illuminated
Dec 5
Waning Gibbous
Dec 6
Last Quarter
Dec 13
New
Dec 19
First Quarter
Dec 28
Full

Hourly Weather History & Observations

Time (CST) Temp. Windchill Dew Point Humidity Pressure Visibility Wind Dir Wind Speed Gust Speed Precip Events Conditions
12:15 AM 14.0 °F 2.9 °F 10.4 °F 86% 30.27 in 10.0 mi SE 8.1 mph - N/A   Clear
12:35 AM 12.2 °F -0.2 °F 10.4 °F 92% 30.26 in 10.0 mi SE 9.2 mph - N/A   Partly Cloudy
12:55 AM 14.0 °F 3.9 °F 12.2 °F 93% 30.26 in 10.0 mi SE 6.9 mph - N/A   Mostly Cloudy
1:15 AM 14.0 °F 2.0 °F 12.2 °F 93% 30.25 in 10.0 mi SE 9.2 mph - N/A   Mostly Cloudy
1:55 AM 14.0 °F -0.2 °F 12.2 °F 93% 30.22 in 10.0 mi SE 12.7 mph - N/A   Scattered Clouds
2:15 AM 14.0 °F 2.0 °F 12.2 °F 93% 30.23 in 10.0 mi SSE 9.2 mph - N/A   Clear
2:35 AM 14.0 °F 0.5 °F 12.2 °F 93% 30.22 in 10.0 mi SSE 11.5 mph - N/A   Clear
2:55 AM 14.0 °F 0.5 °F 12.2 °F 93% 30.20 in 10.0 mi SE 11.5 mph - N/A   Clear
3:15 AM 14.0 °F -0.2 °F 12.2 °F 93% 30.18 in 10.0 mi SSE 12.7 mph - N/A   Clear
3:35 AM 14.0 °F -0.8 °F 12.2 °F 93% 30.17 in 10.0 mi SSE 13.8 mph - N/A   Clear
3:55 AM 14.0 °F -0.2 °F 14.0 °F 100% 30.17 in 10.0 mi SSE 12.7 mph - N/A   Clear
4:15 AM 15.8 °F 2.7 °F 14.0 °F 93% 30.16 in 10.0 mi SSE 11.5 mph - N/A   Clear
4:35 AM 15.8 °F 2.1 °F 14.0 °F 93% 30.15 in 10.0 mi SSE 12.7 mph - N/A   Clear
4:55 AM 15.8 °F 1.4 °F 14.0 °F 93% 30.13 in 10.0 mi SSE 13.8 mph - N/A   Clear
5:15 AM 15.8 °F 0.3 °F 14.0 °F 93% 30.12 in 10.0 mi SSE 16.1 mph - N/A   Clear
5:35 AM 15.8 °F -1.5 °F 14.0 °F 93% 30.09 in 10.0 mi SSE 20.7 mph 26.5 mph N/A   Clear
5:55 AM 15.8 °F -1.5 °F 14.0 °F 93% 30.08 in 10.0 mi SSE 20.7 mph - N/A   Clear
6:15 AM 15.8 °F -1.9 °F 14.0 °F 93% 30.06 in 10.0 mi SSE 21.9 mph 27.6 mph N/A   Clear
6:35 AM 17.6 °F 0.1 °F 14.0 °F 86% 30.05 in 10.0 mi SSE 23.0 mph 29.9 mph N/A   Clear
6:55 AM 17.6 °F 0.1 °F 14.0 °F 86% 30.04 in 10.0 mi SSE 23.0 mph 29.9 mph N/A   Clear
8:35 AM 19.4 °F 3.2 °F 15.8 °F 86% 30.00 in 10.0 mi SSE 20.7 mph 26.5 mph N/A   Clear
8:55 AM 19.4 °F 3.6 °F 15.8 °F 86% 30.00 in 10.0 mi SSE 19.6 mph 24.2 mph N/A   Clear
9:15 AM 19.4 °F 5.0 °F 15.8 °F 86% 30.00 in 10.0 mi SSE 16.1 mph - N/A   Clear
9:35 AM 19.4 °F 4.1 °F 15.8 °F 86% 29.99 in 10.0 mi SSE 18.4 mph - N/A   Clear
9:55 AM 21.2 °F 5.2 °F 15.8 °F 80% 29.97 in 10.0 mi SSE 21.9 mph - N/A   Clear
10:15 AM 21.2 °F 4.5 °F 15.8 °F 80% 29.95 in 10.0 mi SSE 24.2 mph 31.1 mph N/A   Clear
10:35 AM 23.0 °F 8.0 °F 15.8 °F 74% 29.94 in 10.0 mi SSE 20.7 mph 31.1 mph N/A   Clear
10:55 AM 23.0 °F 8.7 °F 15.8 °F 74% 29.92 in 10.0 mi SSE 18.4 mph 28.8 mph N/A   Clear
11:15 AM 23.0 °F 9.2 °F 17.6 °F 80% 29.92 in 10.0 mi SSE 17.3 mph 23.0 mph N/A   Clear
11:35 AM 24.8 °F 11.1 °F 17.6 °F 74% 29.89 in 10.0 mi SSE 18.4 mph 25.3 mph N/A   Clear
11:55 AM 24.8 °F 10.7 °F 17.6 °F 74% 29.87 in 10.0 mi SSE 19.6 mph 25.3 mph N/A   Clear
12:15 PM 26.6 °F 12.0 °F 17.6 °F 69% 29.85 in 10.0 mi SSE 23.0 mph 27.6 mph N/A   Clear
12:35 PM 28.4 °F 14.1 °F 19.4 °F 69% 29.83 in 10.0 mi SSE 24.2 mph 27.6 mph N/A   Clear
12:55 PM 28.4 °F 14.1 °F 19.4 °F 69% 29.82 in 10.0 mi SSE 24.2 mph - N/A   Clear
1:15 PM 28.4 °F 13.8 °F 19.4 °F 69% 29.80 in 10.0 mi SSE 25.3 mph 28.8 mph N/A   Clear
1:35 PM 28.4 °F 14.4 °F 19.4 °F 69% 29.78 in 10.0 mi SSE 23.0 mph - N/A   Clear
1:55 PM 28.4 °F 14.4 °F 19.4 °F 69% 29.77 in 10.0 mi South 23.0 mph 28.8 mph N/A   Clear
2:15 PM 30.2 °F 17.8 °F 19.4 °F 64% 29.77 in 10.0 mi SSE 19.6 mph 25.3 mph N/A   Clear
2:35 PM 30.2 °F 17.4 °F 19.4 °F 64% 29.75 in 10.0 mi SSE 20.7 mph 25.3 mph N/A   Clear
2:55 PM 30.2 °F 18.1 °F 19.4 °F 64% 29.73 in 10.0 mi SSE 18.4 mph 24.2 mph N/A   Clear
3:15 PM 28.4 °F 15.4 °F 19.4 °F 69% 29.73 in 10.0 mi SSE 19.6 mph 25.3 mph N/A   Clear
3:35 PM 28.4 °F 16.2 °F 19.4 °F 69% 29.73 in 10.0 mi South 17.3 mph 21.9 mph N/A   Clear
3:55 PM 28.4 °F 16.6 °F 19.4 °F 69% 29.72 in 10.0 mi SSE 16.1 mph 21.9 mph N/A   Clear
4:15 PM 28.4 °F 18.0 °F 19.4 °F 69% 29.71 in 10.0 mi SSE 12.7 mph 23.0 mph N/A   Clear
4:35 PM 28.4 °F 17.0 °F 19.4 °F 69% 29.70 in 10.0 mi SSE 15.0 mph - N/A   Clear
4:55 PM 28.4 °F 16.6 °F 19.4 °F 69% 29.69 in 10.0 mi SSE 16.1 mph - N/A   Partly Cloudy
5:15 PM 26.6 °F 15.7 °F 19.4 °F 74% 29.68 in 10.0 mi South 12.7 mph - N/A   Clear
5:35 PM 28.4 °F 18.0 °F 21.2 °F 74% 29.69 in 10.0 mi South 12.7 mph - N/A   Mostly Cloudy
5:55 PM 28.4 °F 17.0 °F 21.2 °F 74% 29.67 in 10.0 mi SSE 15.0 mph - N/A   Mostly Cloudy
6:15 PM 28.4 °F 16.6 °F 23.0 °F 80% 29.66 in 10.0 mi South 16.1 mph - N/A   Mostly Cloudy
6:35 PM 30.2 °F 18.9 °F 23.0 °F 75% 29.66 in 8.0 mi South 16.1 mph - N/A   Overcast
6:55 PM 30.2 °F 19.3 °F 23.0 °F 75% 29.67 in 7.0 mi South 15.0 mph - N/A   Overcast
7:15 PM 32.0 °F 22.5 °F 23.0 °F 69% 29.66 in 10.0 mi South 12.7 mph - N/A   Mostly Cloudy
7:35 PM 32.0 °F 23.0 °F 23.0 °F 69% 29.66 in 10.0 mi SSW 11.5 mph - N/A   Scattered Clouds
7:55 PM 32.0 °F 22.1 °F 23.0 °F 69% 29.64 in 10.0 mi South 13.8 mph 18.4 mph N/A   Scattered Clouds
8:15 PM 32.0 °F 23.6 °F 24.8 °F 75% 29.66 in 10.0 mi SSW 10.4 mph - N/A   Partly Cloudy
8:35 PM 32.0 °F 23.6 °F 24.8 °F 75% 29.65 in 10.0 mi SSW 10.4 mph - N/A   Clear